| time (UTC) | temp F | wind direction | speed knots | gust knots | rain 1hr in | rain 24hr in | rain mn in | humidity % | barometer mb |
| 20260901103215 | 74 | 91 | 0.0 | 0.0 | 0.00 | 0.01 | 0.00 | 94 | 1015.7 |
| 20260901100215 | 74 | 91 | 0.0 | 0.0 | 0.00 | 0.01 | 0.00 | 94 | 1015.7 |
| 20260901093215 | 74 | 91 | 0.0 | 0.0 | 0.00 | 0.01 | 0.00 | 94 | 1015.5 |
| 20260901090215 | 74 | 91 | 0.0 | 0.0 | 0.00 | 0.01 | 0.00 | 94 | 1015.5 |
| 20260901083215 | 74 | 91 | 0.0 | 0.0 | 0.00 | 0.01 | 0.00 | 94 | 1015.6 |
| 20260901080215 | 75 | 91 | 0.0 | 0.0 | 0.00 | 0.01 | 0.00 | 94 | 1015.5 |
| 20260901073215 | 75 | 91 | 0.0 | 0.0 | 0.00 | 0.01 | 0.00 | 94 | 1015.7 |
| 20260901063215 | 75 | 91 | 0.0 | 0.0 | 0.00 | 0.01 | 0.00 | 95 | 1015.8 |
| 20260901060214 | 75 | 91 | 0.0 | 0.0 | 0.00 | 0.01 | 0.00 | 95 | 1015.9 |
| 20260901053214 | 76 | 91 | 0.0 | 0.0 | 0.00 | 0.01 | 0.00 | 95 | 1016.1 |
| 20260901050214 | 76 | 91 | 0.0 | 0.0 | 0.00 | 0.01 | 0.00 | 95 | 1016.1 |
| 20260901043214 | 76 | 91 | 0.0 | 0.0 | 0.00 | 0.01 | 0.01 | 95 | 1016.2 |
| 20260901040214 | 77 | 91 | 0.0 | 0.0 | 0.00 | 0.01 | 0.01 | 95 | 1016.2 |
| 20260901033214 | 77 | 91 | 0.0 | 0.0 | 0.00 | 0.01 | 0.01 | 95 | 1016.4 |
| 20260901030214 | 77 | 91 | 0.0 | 0.0 | 0.00 | 0.01 | 0.01 | 95 | 1016.2 |
| 20260901023214 | 78 | 91 | 0.0 | 0.0 | 0.00 | 0.01 | 0.01 | 95 | 1016.3 |
| 20260901020214 | 78 | 91 | 0.0 | 0.0 | 0.00 | 0.01 | 0.01 | 94 | 1016.1 |
| 20260901013213 | 79 | 91 | 0.0 | 0.0 | 0.00 | 0.01 | 0.01 | 93 | 1015.9 |
| 20260901010213 | 80 | 92 | 0.0 | 0.0 | 0.00 | 0.01 | 0.01 | 91 | 1015.5 |
| 20260901000213 | 83 | 153 | 0.0 | 0.0 | 0.00 | 0.01 | 0.01 | 85 | 1015.0 |
| 20260831233213 | 84 | 190 | 2.6 | 2.6 | 0.00 | 0.01 | 0.01 | 83 | 1015.0 |
| 20260831230213 | 85 | 153 | 0.0 | 2.6 | 0.00 | 0.01 | 0.01 | 83 | 1015.2 |
| 20260831223213 | 85 | 220 | 1.7 | 2.6 | 0.00 | 0.01 | 0.01 | 84 | 1015.1 |
| 20260831220213 | 85 | 173 | 0.0 | 1.7 | 0.00 | 0.01 | 0.01 | 83 | 1015.2 |
| 20260831213213 | 85 | 137 | 0.0 | 1.7 | 0.00 | 0.01 | 0.01 | 84 | 1015.4 |
| 20260831210217 | 84 | 176 | 0.0 | 1.7 | 0.00 | 0.01 | 0.01 | 82 | 1015.5 |
| 20260831203212 | 85 | 172 | 0.0 | 0.0 | 0.00 | 0.01 | 0.01 | 80 | 1015.7 |
| 20260831200212 | 87 | 203 | 0.0 | 0.0 | 0.00 | 0.01 | 0.01 | 78 | 1015.8 |
| 20260831193213 | 89 | 148 | 0.0 | 0.0 | 0.00 | 0.01 | 0.01 | 74 | 1016.1 |
| 20260831183212 | 91 | 188 | 0.0 | 0.0 | 0.00 | 0.01 | 0.01 | 64 | 1016.2 |
| 20260831180213 | 90 | 238 | 1.7 | 7.0 | 0.00 | 0.03 | 0.01 | 66 | 1016.5 |
| 20260831173212 | 90 | 358 | 1.7 | 1.7 | 0.00 | 0.03 | 0.01 | 67 | 1016.9 |
| 20260831170212 | 92 | 136 | 2.6 | 7.0 | 0.00 | 0.03 | 0.01 | 64 | 1017.1 |
| 20260831163212 | 89 | 11 | 0.0 | 0.0 | 0.00 | 0.03 | 0.01 | 73 | 1017.3 |
| 20260831160212 | 89 | 315 | 0.0 | 0.0 | 0.00 | 0.03 | 0.01 | 74 | 1017.5 |
| 20260831150212 | 86 | 136 | 2.6 | 5.2 | 0.00 | 0.03 | 0.01 | 77 | 1017.5 |
| 20260831143212 | 85 | 176 | 4.3 | 5.2 | 0.00 | 0.03 | 0.01 | 82 | 1017.3 |
| 20260831140212 | 82 | 153 | 0.0 | 4.3 | 0.00 | 0.03 | 0.01 | 87 | 1017.4 |
| 20260831123211 | 74 | 316 | 1.7 | 2.6 | 0.01 | 0.03 | 0.01 | 95 | 1017.0 |
| 20260831120211 | 73 | 328 | 1.7 | 1.7 | 0.01 | 0.03 | 0.01 | 95 | 1016.6 |
| 20260831113211 | 73 | 328 | 0.0 | 0.0 | 0.00 | 0.02 | 0.00 | 95 | 1016.1 |